Time,TemperatureF,DewpointF,PressureIn,WindDirection,WindDirectionDegrees,WindSpeedMPH,WindSpeedGustMPH,Humidity,HourlyPrecipIn,Conditions,Clouds,dailyrainin,SoftwareType,DateUTC
2013-05-21 00:03:00,67.0,60.3,29.52,SE,135,0.0,1.0,79,0.00,,---,0.00,VWS V13.01,2013-05-21 07:03:00,
2013-05-21 00:08:00,67.0,60.3,29.52,SE,135,0.0,0.0,79,0.00,,---,0.00,VWS V13.01,2013-05-21 07:08:00,
2013-05-21 00:13:00,67.0,60.3,29.52,SE,135,0.0,0.0,79,0.00,,---,0.00,VWS V13.01,2013-05-21 07:13:00,
2013-05-21 00:18:00,67.0,60.3,29.52,ESE,112,0.0,0.0,79,0.00,,---,0.00,VWS V13.01,2013-05-21 07:18:00,
2013-05-21 00:23:00,67.0,60.3,29.51,ESE,112,0.0,1.0,79,0.00,,---,0.00,VWS V13.01,2013-05-21 07:23:00,
2013-05-21 00:28:00,67.0,60.3,29.51,SE,135,0.0,1.0,79,0.00,,---,0.00,VWS V13.01,2013-05-21 07:28:00,
2013-05-21 00:33:00,67.0,60.3,29.51,SE,135,0.0,0.0,79,0.00,,---,0.00,VWS V13.01,2013-05-21 07:33:00,
2013-05-21 00:38:00,67.0,60.3,29.51,SE,135,0.0,0.0,79,0.00,,---,0.00,VWS V13.01,2013-05-21 07:38:00,
2013-05-21 00:43:00,67.0,60.3,29.51,SE,135,0.0,0.0,79,0.00,,---,0.00,VWS V13.01,2013-05-21 07:43:00,
2013-05-21 00:48:00,67.0,60.3,29.51,East,90,0.0,0.0,79,0.00,,---,0.00,VWS V13.01,2013-05-21 07:48:00,
2013-05-21 00:53:00,67.0,60.3,29.49,ESE,112,0.0,1.0,79,0.00,,---,0.00,VWS V13.01,2013-05-21 07:53:00,
2013-05-21 00:58:00,67.0,60.3,29.49,ESE,112,0.0,0.0,79,0.00,,---,0.00,VWS V13.01,2013-05-21 07:58:00,
2013-05-21 01:03:00,66.0,59.3,29.49,ESE,112,2.0,2.0,79,0.00,,---,0.00,VWS V13.01,2013-05-21 08:03:00,
2013-05-21 01:08:00,67.0,60.3,29.49,SE,135,0.0,0.0,79,0.00,,---,0.00,VWS V13.01,2013-05-21 08:08:00,
2013-05-21 01:13:00,67.0,60.3,29.50,ESE,112,0.0,0.0,79,0.00,,---,0.00,VWS V13.01,2013-05-21 08:13:00,
2013-05-21 01:18:00,67.0,60.3,29.50,ESE,112,0.0,0.0,79,0.00,,---,0.00,VWS V13.01,2013-05-21 08:18:00,
2013-05-21 01:23:00,67.0,60.3,29.49,SE,135,0.0,0.0,79,0.00,,---,0.00,VWS V13.01,2013-05-21 08:23:00,
2013-05-21 01:28:00,66.0,59.3,29.49,SE,135,0.0,0.0,79,0.00,,---,0.00,VWS V13.01,2013-05-21 08:28:00,
2013-05-21 01:33:00,66.0,59.3,29.49,SE,135,0.0,0.0,79,0.00,,---,0.00,VWS V13.01,2013-05-21 08:33:00,
2013-05-21 01:38:00,66.0,59.3,29.49,SE,135,0.0,0.0,79,0.00,,---,0.00,VWS V13.01,2013-05-21 08:38:00,
2013-05-21 01:43:00,66.0,59.3,29.49,SE,135,0.0,0.0,79,0.00,,---,0.00,VWS V13.01,2013-05-21 08:43:00,
2013-05-21 01:48:00,66.0,59.3,29.49,East,90,0.0,0.0,79,0.00,,---,0.00,VWS V13.01,2013-05-21 08:48:00,
2013-05-21 01:53:00,65.0,58.3,29.49,East,90,0.0,0.0,79,0.00,,---,0.00,VWS V13.01,2013-05-21 08:53:00,
2013-05-21 01:58:00,65.0,58.3,29.49,East,90,0.0,0.0,79,0.00,,---,0.00,VWS V13.01,2013-05-21 08:58:00,
2013-05-21 02:03:00,65.0,58.3,29.50,SE,135,0.0,0.0,79,0.00,,---,0.00,VWS V13.01,2013-05-21 09:03:00,
2013-05-21 02:08:00,64.0,57.4,29.50,SE,135,0.0,0.0,79,0.00,,---,0.00,VWS V13.01,2013-05-21 09:08:00,
2013-05-21 02:13:00,64.0,57.4,29.49,SE,135,0.0,0.0,79,0.00,,---,0.00,VWS V13.01,2013-05-21 09:13:00,
2013-05-21 02:18:00,64.0,57.4,29.49,SE,135,0.0,0.0,79,0.00,,---,0.00,VWS V13.01,2013-05-21 09:18:00,
2013-05-21 02:23:00,64.0,57.4,29.48,SE,135,0.0,0.0,79,0.00,,---,0.00,VWS V13.01,2013-05-21 09:23:00,
2013-05-21 02:28:00,64.0,57.4,29.48,SE,135,0.0,0.0,79,0.00,,---,0.00,VWS V13.01,2013-05-21 09:28:00,
2013-05-21 02:33:00,64.0,57.4,29.49,SE,135,0.0,0.0,79,0.00,,---,0.00,VWS V13.01,2013-05-21 09:33:00,
2013-05-21 02:38:00,64.0,57.4,29.49,SE,135,0.0,0.0,79,0.00,,---,0.00,VWS V13.01,2013-05-21 09:38:00,
2013-05-21 02:43:00,64.0,57.4,29.49,SE,135,0.0,0.0,79,0.00,,---,0.00,VWS V13.01,2013-05-21 09:43:00,
2013-05-21 02:48:00,64.0,57.4,29.49,SE,135,0.0,0.0,79,0.00,,---,0.00,VWS V13.01,2013-05-21 09:48:00,
2013-05-21 02:53:00,64.0,57.4,29.48,ENE,67,0.0,1.0,79,0.00,,---,0.00,VWS V13.01,2013-05-21 09:53:00,
2013-05-21 02:58:00,64.0,57.4,29.48,ENE,67,0.0,0.0,79,0.00,,---,0.00,VWS V13.01,2013-05-21 09:58:00,
2013-05-21 03:03:00,64.0,57.4,29.49,SE,135,0.0,1.0,79,0.00,,---,0.00,VWS V13.01,2013-05-21 10:03:00,
2013-05-21 03:08:00,64.0,57.4,29.49,NE,45,0.0,0.0,79,0.00,,---,0.00,VWS V13.01,2013-05-21 10:08:00,
2013-05-21 03:13:00,63.0,56.4,29.49,NE,45,0.0,0.0,79,0.00,,---,0.00,VWS V13.01,2013-05-21 10:13:00,
2013-05-21 03:18:00,63.0,56.4,29.49,NE,45,0.0,0.0,79,0.00,,---,0.00,VWS V13.01,2013-05-21 10:18:00,
2013-05-21 03:23:00,63.0,56.4,29.49,NE,45,0.0,0.0,79,0.00,,---,0.00,VWS V13.01,2013-05-21 10:23:00,
2013-05-21 03:28:00,62.0,55.4,29.49,NE,45,0.0,0.0,79,0.00,,---,0.00,VWS V13.01,2013-05-21 10:28:00,
2013-05-21 03:33:00,62.0,55.4,29.50,NE,45,0.0,0.0,79,0.00,,---,0.00,VWS V13.01,2013-05-21 10:33:00,
2013-05-21 03:38:00,62.0,55.4,29.50,NE,45,0.0,0.0,79,0.00,,---,0.00,VWS V13.01,2013-05-21 10:38:00,
2013-05-21 03:43:00,62.0,55.4,29.49,NE,45,0.0,0.0,79,0.00,,---,0.00,VWS V13.01,2013-05-21 10:43:00,
2013-05-21 03:48:00,61.0,54.5,29.49,SE,135,0.0,0.0,79,0.00,,---,0.00,VWS V13.01,2013-05-21 10:48:00,
2013-05-21 03:53:00,61.0,54.5,29.50,SE,135,0.0,0.0,79,0.00,,---,0.00,VWS V13.01,2013-05-21 10:53:00,
2013-05-21 03:58:00,60.0,53.5,29.50,SE,135,0.0,0.0,79,0.00,,---,0.00,VWS V13.01,2013-05-21 10:58:00,
2013-05-21 04:03:00,60.0,53.5,29.49,SE,135,0.0,0.0,79,0.00,,---,0.00,VWS V13.01,2013-05-21 11:03:00,
2013-05-21 04:08:00,60.0,53.5,29.49,SE,135,0.0,0.0,79,0.00,,---,0.00,VWS V13.01,2013-05-21 11:08:00,
2013-05-21 04:13:00,60.0,53.5,29.50,ENE,67,0.0,0.0,79,0.00,,---,0.00,VWS V13.01,2013-05-21 11:13:00,
2013-05-21 04:18:00,60.0,53.5,29.50,ESE,112,0.0,0.0,79,0.00,,---,0.00,VWS V13.01,2013-05-21 11:18:00,
2013-05-21 04:23:00,59.0,52.2,29.49,ESE,112,0.0,0.0,78,0.00,,---,0.00,VWS V13.01,2013-05-21 11:23:00,
2013-05-21 04:28:00,59.0,52.2,29.49,East,90,0.0,0.0,78,0.00,,---,0.00,VWS V13.01,2013-05-21 11:28:00,
2013-05-21 04:33:00,59.0,52.2,29.50,East,90,0.0,0.0,78,0.00,,---,0.00,VWS V13.01,2013-05-21 11:33:00,
2013-05-21 04:38:00,59.0,52.2,29.50,East,90,0.0,0.0,78,0.00,,---,0.00,VWS V13.01,2013-05-21 11:38:00,
2013-05-21 04:43:00,59.0,52.2,29.50,ESE,112,0.0,0.0,78,0.00,,---,0.00,VWS V13.01,2013-05-21 11:43:00,
2013-05-21 04:48:00,59.0,52.2,29.50,SSE,157,0.0,0.0,78,0.00,,---,0.00,VWS V13.01,2013-05-21 11:48:00,
2013-05-21 04:53:00,59.0,52.2,29.50,NE,45,0.0,0.0,78,0.00,,---,0.00,VWS V13.01,2013-05-21 11:53:00,
2013-05-21 04:58:00,59.0,52.2,29.50,ESE,112,0.0,0.0,78,0.00,,---,0.00,VWS V13.01,2013-05-21 11:58:00,
2013-05-21 05:03:00,59.0,52.2,29.52,ESE,112,0.0,0.0,78,0.00,,---,0.00,VWS V13.01,2013-05-21 12:03:00,
2013-05-21 05:08:00,58.0,51.2,29.52,ESE,112,0.0,0.0,78,0.00,,---,0.00,VWS V13.01,2013-05-21 12:08:00,
2013-05-21 05:13:00,58.0,51.2,29.49,NNE,22,0.0,1.0,78,0.00,,---,0.00,VWS V13.01,2013-05-21 12:13:00,
2013-05-21 05:18:00,58.0,51.2,29.49,NE,45,0.0,0.0,78,0.00,,---,0.00,VWS V13.01,2013-05-21 12:18:00,
2013-05-21 05:23:00,58.0,51.2,29.49,NE,45,0.0,0.0,78,0.00,,---,0.00,VWS V13.01,2013-05-21 12:23:00,
2013-05-21 05:28:00,58.0,51.2,29.50,SE,135,0.0,0.0,78,0.00,,---,0.00,VWS V13.01,2013-05-21 12:28:00,
2013-05-21 05:33:00,58.0,51.2,29.51,North,360,0.0,0.0,78,0.00,,---,0.00,VWS V13.01,2013-05-21 12:33:00,
2013-05-21 05:38:00,58.0,51.2,29.51,North,360,0.0,0.0,78,0.00,,---,0.00,VWS V13.01,2013-05-21 12:38:00,
2013-05-21 05:43:00,58.0,51.2,29.51,North,360,0.0,0.0,78,0.00,,---,0.00,VWS V13.01,2013-05-21 12:43:00,
2013-05-21 05:48:00,58.0,51.2,29.51,NW,315,0.0,0.0,78,0.00,,---,0.00,VWS V13.01,2013-05-21 12:48:00,
2013-05-21 05:53:00,58.0,51.2,29.52,NW,315,0.0,0.0,78,0.00,,---,0.00,VWS V13.01,2013-05-21 12:53:00,
2013-05-21 05:58:00,57.0,50.2,29.52,NE,45,0.0,0.0,78,0.00,,---,0.00,VWS V13.01,2013-05-21 12:58:00,
2013-05-21 06:03:00,57.0,50.2,29.52,NE,45,0.0,0.0,78,0.00,,---,0.00,VWS V13.01,2013-05-21 13:03:00,
2013-05-21 06:05:00,57.0,50.2,29.52,NE,45,0.0,0.0,78,0.00,,---,0.00,VWS V13.01,2013-05-21 13:05:00,
2013-05-21 06:08:00,57.0,50.2,29.52,NE,45,0.0,0.0,78,0.00,,---,0.00,VWS V13.01,2013-05-21 13:08:00,
2013-05-21 06:13:00,57.0,50.2,29.52,NE,45,0.0,0.0,78,0.00,,---,0.00,VWS V13.01,2013-05-21 13:13:00,
2013-05-21 06:18:00,57.0,50.2,29.54,North,360,0.0,0.0,78,0.00,,---,0.00,VWS V13.01,2013-05-21 13:18:00,
2013-05-21 06:23:00,57.0,50.2,29.54,North,360,0.0,0.0,78,0.00,,---,0.00,VWS V13.01,2013-05-21 13:23:00,
2013-05-21 06:28:00,57.0,50.2,29.53,NW,315,0.0,0.0,78,0.00,,---,0.00,VWS V13.01,2013-05-21 13:28:00,
2013-05-21 06:33:00,57.0,50.2,29.53,SSE,157,0.0,0.0,78,0.00,,---,0.00,VWS V13.01,2013-05-21 13:33:00,
2013-05-21 06:38:00,57.0,50.2,29.53,SSE,157,0.0,0.0,78,0.00,,---,0.00,VWS V13.01,2013-05-21 13:38:00,
2013-05-21 06:43:00,57.0,50.2,29.53,SSE,157,0.0,0.0,78,0.00,,---,0.00,VWS V13.01,2013-05-21 13:43:00,
2013-05-21 06:48:00,58.0,51.2,29.53,SE,135,0.0,0.0,78,0.00,,---,0.00,VWS V13.01,2013-05-21 13:48:00,
2013-05-21 06:53:00,58.0,51.2,29.53,SE,135,0.0,0.0,78,0.00,,---,0.00,VWS V13.01,2013-05-21 13:53:00,
2013-05-21 06:58:00,58.0,51.2,29.53,SE,135,2.0,2.0,78,0.00,,---,0.00,VWS V13.01,2013-05-21 13:58:00,
2013-05-21 07:03:00,58.0,51.2,29.53,ENE,67,0.0,0.0,78,0.00,,---,0.00,VWS V13.01,2013-05-21 14:03:00,
2013-05-21 07:08:00,58.0,51.2,29.53,ESE,112,0.0,0.0,78,0.00,,---,0.00,VWS V13.01,2013-05-21 14:08:00,
2013-05-21 07:13:00,58.0,51.2,29.53,NE,45,0.0,0.0,78,0.00,,---,0.00,VWS V13.01,2013-05-21 14:13:00,
2013-05-21 07:18:00,58.0,51.2,29.53,NE,45,0.0,0.0,78,0.00,,---,0.00,VWS V13.01,2013-05-21 14:18:00,
2013-05-21 07:23:00,59.0,52.2,29.53,ENE,67,0.0,0.0,78,0.00,,---,0.00,VWS V13.01,2013-05-21 14:23:00,
2013-05-21 07:28:00,59.0,52.2,29.53,ENE,67,0.0,0.0,78,0.00,,---,0.00,VWS V13.01,2013-05-21 14:28:00,
2013-05-21 07:33:00,59.0,52.2,29.54,ESE,112,0.0,0.0,78,0.00,,---,0.00,VWS V13.01,2013-05-21 14:33:00,
2013-05-21 07:38:00,59.0,52.2,29.54,ESE,112,0.0,0.0,78,0.00,,---,0.00,VWS V13.01,2013-05-21 14:38:00,
2013-05-21 07:43:00,59.0,52.2,29.54,NNE,22,0.0,0.0,78,0.00,,---,0.00,VWS V13.01,2013-05-21 14:43:00,
2013-05-21 07:48:00,59.0,52.2,29.54,NNE,22,0.0,0.0,78,0.00,,---,0.00,VWS V13.01,2013-05-21 14:48:00,
2013-05-21 07:53:00,59.0,52.2,29.55,NE,45,0.0,0.0,78,0.00,,---,0.00,VWS V13.01,2013-05-21 14:53:00,
2013-05-21 07:58:00,59.0,52.2,29.55,NE,45,0.0,0.0,78,0.00,,---,0.00,VWS V13.01,2013-05-21 14:58:00,
2013-05-21 08:03:00,60.0,53.5,29.53,NE,45,0.0,0.0,79,0.00,,---,0.00,VWS V13.01,2013-05-21 15:03:00,
2013-05-21 08:08:00,61.0,54.5,29.54,SE,135,0.0,0.0,79,0.00,,---,0.00,VWS V13.01,2013-05-21 15:08:00,
2013-05-21 08:13:00,61.0,54.5,29.54,NNE,22,0.0,0.0,79,0.00,,---,0.00,VWS V13.01,2013-05-21 15:13:00,
2013-05-21 08:18:00,61.0,54.5,29.54,NNE,22,0.0,0.0,79,0.00,,---,0.00,VWS V13.01,2013-05-21 15:18:00,
2013-05-21 08:23:00,62.0,55.4,29.55,ESE,112,1.0,1.0,79,0.00,,---,0.00,VWS V13.01,2013-05-21 15:23:00,
2013-05-21 08:28:00,62.0,55.4,29.55,ESE,112,1.0,1.0,79,0.00,,---,0.00,VWS V13.01,2013-05-21 15:28:00,
2013-05-21 08:33:00,62.0,55.4,29.55,ESE,112,1.0,1.0,79,0.00,,---,0.00,VWS V13.01,2013-05-21 15:33:00,
2013-05-21 08:38:00,64.0,57.4,29.53,East,90,2.0,2.0,79,0.00,,---,0.00,VWS V13.01,2013-05-21 15:38:00,
2013-05-21 08:43:00,64.0,57.4,29.53,SE,135,0.0,1.0,79,0.00,,---,0.00,VWS V13.01,2013-05-21 15:43:00,
2013-05-21 08:48:00,64.0,57.4,29.53,ENE,67,0.0,0.0,79,0.00,,---,0.00,VWS V13.01,2013-05-21 15:48:00,
2013-05-21 08:53:00,65.0,58.3,29.53,SE,135,0.0,0.0,79,0.00,,---,0.00,VWS V13.01,2013-05-21 15:53:00,
2013-05-21 08:58:00,65.0,58.3,29.52,East,90,1.0,1.0,79,0.00,,---,0.00,VWS V13.01,2013-05-21 15:58:00,
2013-05-21 09:03:00,65.0,58.3,29.52,ESE,112,1.0,1.0,79,0.00,,---,0.00,VWS V13.01,2013-05-21 16:03:00,
2013-05-21 09:08:00,66.0,59.3,29.52,ESE,112,3.0,3.0,79,0.00,,---,0.00,VWS V13.01,2013-05-21 16:08:00,
2013-05-21 09:13:00,66.0,59.3,29.52,ENE,67,0.0,0.0,79,0.00,,---,0.00,VWS V13.01,2013-05-21 16:13:00,
2013-05-21 09:18:00,66.0,59.3,29.52,ENE,67,0.0,0.0,79,0.00,,---,0.00,VWS V13.01,2013-05-21 16:18:00,
2013-05-21 09:23:00,68.0,61.6,29.52,ESE,112,0.0,3.0,80,0.00,,---,0.00,VWS V13.01,2013-05-21 16:23:00,
2013-05-21 09:28:00,68.0,61.6,29.52,East,90,0.0,0.0,80,0.00,,---,0.00,VWS V13.01,2013-05-21 16:28:00,
2013-05-21 09:33:00,68.0,61.6,29.52,East,90,0.0,0.0,80,0.00,,---,0.00,VWS V13.01,2013-05-21 16:33:00,
2013-05-21 09:38:00,69.0,62.6,29.50,North,360,0.0,0.0,80,0.00,,---,0.00,VWS V13.01,2013-05-21 16:38:00,
2013-05-21 09:43:00,70.0,63.5,29.51,WSW,247,0.0,1.0,80,0.00,,---,0.00,VWS V13.01,2013-05-21 16:43:00,
2013-05-21 09:48:00,70.0,63.5,29.51,North,360,0.0,0.0,80,0.00,,---,0.00,VWS V13.01,2013-05-21 16:48:00,
2013-05-21 09:53:00,71.0,64.5,29.52,SE,135,0.0,2.0,80,0.00,,---,0.00,VWS V13.01,2013-05-21 16:53:00,
2013-05-21 09:58:00,71.0,64.5,29.52,SW,225,0.0,2.0,80,0.00,,---,0.00,VWS V13.01,2013-05-21 16:58:00,
2013-05-21 10:03:00,71.0,64.5,29.51,NW,315,1.0,1.0,80,0.00,,---,0.00,VWS V13.01,2013-05-21 17:03:00,
2013-05-21 10:08:00,72.0,65.5,29.51,East,90,0.0,1.0,80,0.00,,---,0.00,VWS V13.01,2013-05-21 17:08:00,
2013-05-21 10:13:00,72.0,65.5,29.52,NE,45,0.0,3.0,80,0.00,,---,0.00,VWS V13.01,2013-05-21 17:13:00,
2013-05-21 10:18:00,72.0,65.5,29.52,ESE,112,0.0,0.0,80,0.00,,---,0.00,VWS V13.01,2013-05-21 17:18:00,
2013-05-21 10:23:00,72.0,65.5,29.52,North,360,0.0,0.0,80,0.00,,---,0.00,VWS V13.01,2013-05-21 17:23:00,
2013-05-21 10:28:00,73.0,66.5,29.51,North,360,0.0,0.0,80,0.00,,---,0.00,VWS V13.01,2013-05-21 17:28:00,
2013-05-21 10:33:00,75.0,68.4,29.50,NNW,337,0.0,0.0,80,0.00,,---,0.00,VWS V13.01,2013-05-21 17:33:00,
2013-05-21 10:38:00,74.0,67.4,29.50,NW,315,0.0,0.0,80,0.00,,---,0.00,VWS V13.01,2013-05-21 17:38:00,
2013-05-21 10:43:00,74.0,67.4,29.50,NW,315,0.0,0.0,80,0.00,,---,0.00,VWS V13.01,2013-05-21 17:43:00,
2013-05-21 10:48:00,75.0,68.4,29.50,SW,225,0.0,0.0,80,0.00,,---,0.00,VWS V13.01,2013-05-21 17:48:00,
2013-05-21 10:53:00,75.0,68.4,29.50,SW,225,0.0,0.0,80,0.00,,---,0.00,VWS V13.01,2013-05-21 17:53:00,
2013-05-21 10:58:00,76.0,69.8,29.51,NE,45,0.0,0.0,81,0.00,,---,0.00,VWS V13.01,2013-05-21 17:58:00,
2013-05-21 11:03:00,77.0,70.7,29.51,ESE,112,0.0,0.0,81,0.00,,---,0.00,VWS V13.01,2013-05-21 18:03:00,
2013-05-21 11:08:00,77.0,70.7,29.50,WSW,247,4.0,4.0,81,0.00,,---,0.00,VWS V13.01,2013-05-21 18:08:00,
2013-05-21 11:13:00,77.0,70.7,29.50,WSW,247,4.0,4.0,81,0.00,,---,0.00,VWS V13.01,2013-05-21 18:13:00,
2013-05-21 11:18:00,77.0,70.7,29.50,East,90,0.0,0.0,81,0.00,,---,0.00,VWS V13.01,2013-05-21 18:18:00,
2013-05-21 11:20:00,77.0,70.7,29.50,East,90,0.0,0.0,81,0.00,,---,0.00,VWS V13.01,2013-05-21 18:20:00,
2013-05-21 11:23:00,77.0,70.7,29.50,East,90,0.0,0.0,81,0.00,,---,0.00,VWS V13.01,2013-05-21 18:23:00,
2013-05-21 11:28:00,77.0,70.7,29.50,East,90,0.0,0.0,81,0.00,,---,0.00,VWS V13.01,2013-05-21 18:28:00,
2013-05-21 11:33:00,78.0,71.7,29.49,NW,315,0.0,0.0,81,0.00,,---,0.00,VWS V13.01,2013-05-21 18:33:00,
2013-05-21 11:38:00,78.0,71.7,29.49,NW,315,0.0,0.0,81,0.00,,---,0.00,VWS V13.01,2013-05-21 18:38:00,
2013-05-21 11:43:00,79.0,72.7,29.49,NE,45,0.0,0.0,81,0.00,,---,0.00,VWS V13.01,2013-05-21 18:43:00,
2013-05-21 11:48:00,78.0,71.7,29.49,NNW,337,0.0,0.0,81,0.00,,---,0.00,VWS V13.01,2013-05-21 18:48:00,
2013-05-21 11:53:00,78.0,71.7,29.49,NNW,337,0.0,0.0,81,0.00,,---,0.00,VWS V13.01,2013-05-21 18:53:00,
2013-05-21 11:58:00,79.0,72.7,29.49,West,270,9.0,9.0,81,0.00,,---,0.00,VWS V13.01,2013-05-21 18:58:00,
2013-05-21 12:03:00,80.0,73.7,29.47,SSW,202,0.0,0.0,81,0.00,,---,0.00,VWS V13.01,2013-05-21 19:03:00,
2013-05-21 12:08:00,80.0,73.7,29.47,NNE,22,0.0,0.0,81,0.00,,---,0.00,VWS V13.01,2013-05-21 19:08:00,
2013-05-21 12:13:00,79.0,72.7,29.47,NW,315,2.0,2.0,81,0.00,,---,0.00,VWS V13.01,2013-05-21 19:13:00,
2013-05-21 12:18:00,79.0,72.7,29.47,NW,315,2.0,2.0,81,0.00,,---,0.00,VWS V13.01,2013-05-21 19:18:00,
2013-05-21 12:23:00,80.0,73.7,29.47,SW,225,0.0,0.0,81,0.00,,---,0.00,VWS V13.01,2013-05-21 19:23:00,
2013-05-21 12:28:00,81.0,74.6,29.47,SSE,157,0.0,0.0,81,0.00,,---,0.00,VWS V13.01,2013-05-21 19:28:00,
2013-05-21 12:33:00,81.0,74.6,29.47,NW,315,0.0,0.0,81,0.00,,---,0.00,VWS V13.01,2013-05-21 19:33:00,
2013-05-21 12:38:00,81.0,74.6,29.47,NE,45,0.0,2.0,81,0.00,,---,0.00,VWS V13.01,2013-05-21 19:38:00,
2013-05-21 12:41:00,81.0,74.6,29.47,NE,45,0.0,0.0,81,0.00,,---,0.00,VWS V13.01,2013-05-21 19:41:00,
2013-05-21 12:43:00,81.0,74.6,29.47,NE,45,0.0,0.0,81,0.00,,---,0.00,VWS V13.01,2013-05-21 19:43:00,
2013-05-21 12:48:00,81.0,74.6,29.47,NE,45,0.0,0.0,81,0.00,,---,0.00,VWS V13.01,2013-05-21 19:48:00,
2013-05-21 12:53:00,81.0,74.6,29.47,NE,45,0.0,0.0,81,0.00,,---,0.00,VWS V13.01,2013-05-21 19:53:00,
2013-05-21 12:58:00,83.0,76.6,29.45,NW,315,0.0,0.0,81,0.00,,---,0.00,VWS V13.01,2013-05-21 19:58:00,
2013-05-21 13:03:00,83.0,76.6,29.45,NW,315,0.0,0.0,81,0.00,,---,0.00,VWS V13.01,2013-05-21 20:03:00,
2013-05-21 13:08:00,83.0,76.6,29.45,NW,315,0.0,0.0,81,0.00,,---,0.00,VWS V13.01,2013-05-21 20:08:00,
2013-05-21 13:13:00,83.0,76.6,29.45,NW,315,0.0,0.0,81,0.00,,---,0.00,VWS V13.01,2013-05-21 20:13:00,
2013-05-21 13:18:00,83.0,76.6,29.45,WSW,247,1.0,1.0,81,0.00,,---,0.00,VWS V13.01,2013-05-21 20:18:00,
2013-05-21 13:23:00,83.0,76.6,29.45,WSW,247,1.0,1.0,81,0.00,,---,0.00,VWS V13.01,2013-05-21 20:23:00,
2013-05-21 13:34:00,85.0,78.9,29.43,NW,315,0.0,1.0,82,0.00,,---,0.00,VWS V13.01,2013-05-21 20:34:00,
2013-05-21 13:39:00,85.0,78.9,29.43,West,270,0.0,0.0,82,0.00,,---,0.00,VWS V13.01,2013-05-21 20:39:00,
2013-05-21 13:44:00,86.0,79.9,29.43,North,360,0.0,2.0,82,0.00,,---,0.00,VWS V13.01,2013-05-21 20:44:00,
2013-05-21 13:49:00,86.0,79.9,29.43,North,360,0.0,0.0,82,0.00,,---,0.00,VWS V13.01,2013-05-21 20:49:00,
2013-05-21 13:54:00,86.0,79.9,29.44,WNW,292,0.0,0.0,82,0.00,,---,0.00,VWS V13.01,2013-05-21 20:54:00,
2013-05-21 13:59:00,86.0,79.9,29.44,NNE,22,0.0,0.0,82,0.00,,---,0.00,VWS V13.01,2013-05-21 20:59:00,
2013-05-21 14:04:00,86.0,79.9,29.43,WNW,292,0.0,2.0,82,0.00,,---,0.00,VWS V13.01,2013-05-21 21:04:00,
2013-05-21 14:09:00,86.0,79.9,29.43,SSW,202,0.0,0.0,82,0.00,,---,0.00,VWS V13.01,2013-05-21 21:09:00,
2013-05-21 14:14:00,86.0,79.9,29.43,NNW,337,0.0,0.0,82,0.00,,---,0.00,VWS V13.01,2013-05-21 21:14:00,
2013-05-21 14:19:00,87.0,80.8,29.44,North,360,0.0,0.0,82,0.00,,---,0.00,VWS V13.01,2013-05-21 21:19:00,
2013-05-21 14:24:00,87.0,80.8,29.44,North,360,0.0,0.0,82,0.00,,---,0.00,VWS V13.01,2013-05-21 21:24:00,
2013-05-21 14:29:00,86.0,79.9,29.44,NW,315,0.0,0.0,82,0.00,,---,0.00,VWS V13.01,2013-05-21 21:29:00,
2013-05-21 14:34:00,86.0,79.9,29.44,NW,315,0.0,0.0,82,0.00,,---,0.00,VWS V13.01,2013-05-21 21:34:00,
2013-05-21 14:39:00,86.0,79.9,29.43,WNW,292,5.0,5.0,82,0.00,,---,0.00,VWS V13.01,2013-05-21 21:39:00,
2013-05-21 14:44:00,87.0,80.8,29.43,SW,225,0.0,0.0,82,0.00,,---,0.00,VWS V13.01,2013-05-21 21:44:00,
2013-05-21 14:45:00,87.0,80.8,29.43,SW,225,0.0,0.0,82,0.00,,---,0.00,VWS V13.01,2013-05-21 21:45:00,
2013-05-21 14:49:00,87.0,80.8,29.43,SW,225,0.0,0.0,82,0.00,,---,0.00,VWS V13.01,2013-05-21 21:49:00,
2013-05-21 14:54:00,87.0,80.8,29.43,SW,225,0.0,0.0,82,0.00,,---,0.00,VWS V13.01,2013-05-21 21:54:00,
2013-05-21 15:00:00,87.0,80.8,29.43,SW,225,0.0,0.0,82,0.00,,---,0.00,VWS V13.01,2013-05-21 22:00:00,
2013-05-21 15:05:00,87.0,80.8,29.43,SW,225,0.0,0.0,82,0.00,,---,0.00,VWS V13.01,2013-05-21 22:05:00,
2013-05-21 15:10:00,86.0,79.9,29.43,NW,315,1.0,1.0,82,0.00,,---,0.00,VWS V13.01,2013-05-21 22:10:00,
2013-05-21 15:13:00,86.0,79.9,29.43,NW,315,1.0,1.0,82,0.00,,---,0.00,VWS V13.01,2013-05-21 22:13:00,
2013-05-21 15:15:00,86.0,79.9,29.43,NW,315,1.0,1.0,82,0.00,,---,0.00,VWS V13.01,2013-05-21 22:15:00,
2013-05-21 15:20:00,86.0,79.9,29.43,NW,315,1.0,1.0,82,0.00,,---,0.00,VWS V13.01,2013-05-21 22:20:00,
2013-05-21 15:26:00,86.0,79.9,29.43,NW,315,1.0,1.0,82,0.00,,---,0.00,VWS V13.01,2013-05-21 22:26:00,
2013-05-21 15:31:00,86.0,79.9,29.43,NW,315,1.0,1.0,82,0.00,,---,0.00,VWS V13.01,2013-05-21 22:31:00,
2013-05-21 15:41:00,86.0,79.9,29.43,NW,315,1.0,1.0,82,0.00,,---,0.00,VWS V13.01,2013-05-21 22:41:00,
2013-05-21 15:54:00,86.0,79.9,29.43,NW,315,1.0,1.0,82,0.00,,---,0.00,VWS V13.01,2013-05-21 22:54:00,
2013-05-21 16:03:00,86.0,79.9,29.43,NW,315,1.0,1.0,82,0.00,,---,0.00,VWS V13.01,2013-05-21 23:03:00,
2013-05-21 16:09:00,86.0,79.9,29.42,SW,225,0.0,1.0,82,0.00,,---,0.00,VWS V13.01,2013-05-21 23:09:00,
2013-05-21 16:14:00,85.0,78.9,29.42,NW,315,1.0,1.0,82,0.00,,---,0.00,VWS V13.01,2013-05-21 23:14:00,
2013-05-21 16:19:00,85.0,78.9,29.43,NW,315,0.0,0.0,82,0.00,,---,0.00,VWS V13.01,2013-05-21 23:19:00,
2013-05-21 16:24:00,86.0,79.9,29.41,SSW,202,0.0,3.0,82,0.00,,---,0.00,VWS V13.01,2013-05-21 23:24:00,
2013-05-21 16:29:00,85.0,78.9,29.41,West,270,0.0,0.0,82,0.00,,---,0.00,VWS V13.01,2013-05-21 23:29:00,
2013-05-21 16:34:00,85.0,78.9,29.42,WSW,247,0.0,0.0,82,0.00,,---,0.00,VWS V13.01,2013-05-21 23:34:00,
2013-05-21 16:39:00,85.0,78.9,29.42,WSW,247,0.0,0.0,82,0.00,,---,0.00,VWS V13.01,2013-05-21 23:39:00,
2013-05-21 16:44:00,85.0,78.9,29.41,SW,225,0.0,0.0,82,0.00,,---,0.00,VWS V13.01,2013-05-21 23:44:00,
2013-05-21 16:45:00,85.0,78.9,29.41,SW,225,0.0,0.0,82,0.00,,---,0.00,VWS V13.01,2013-05-21 23:45:00,
2013-05-21 16:49:00,85.0,78.9,29.41,SW,225,0.0,0.0,82,0.00,,---,0.00,VWS V13.01,2013-05-21 23:49:00,
2013-05-21 16:54:00,85.0,78.9,29.41,SW,225,0.0,0.0,82,0.00,,---,0.00,VWS V13.01,2013-05-21 23:54:00,
2013-05-21 16:59:00,85.0,78.9,29.42,NW,315,0.0,0.0,82,0.00,,---,0.00,VWS V13.01,2013-05-21 23:59:00,
2013-05-21 17:04:00,85.0,78.9,29.42,WSW,247,0.0,0.0,82,0.00,,---,0.00,VWS V13.01,2013-05-22 00:04:00,
2013-05-21 17:09:00,85.0,78.9,29.42,NW,315,0.0,0.0,82,0.00,,---,0.00,VWS V13.01,2013-05-22 00:09:00,
2013-05-21 17:14:00,85.0,78.9,29.41,West,270,0.0,2.0,82,0.00,,---,0.00,VWS V13.01,2013-05-22 00:14:00,
2013-05-21 17:19:00,85.0,78.9,29.41,West,270,0.0,0.0,82,0.00,,---,0.00,VWS V13.01,2013-05-22 00:19:00,
2013-05-21 17:24:00,85.0,78.9,29.41,NW,315,0.0,0.0,82,0.00,,---,0.00,VWS V13.01,2013-05-22 00:24:00,
2013-05-21 17:29:00,85.0,78.9,29.41,WSW,247,0.0,0.0,82,0.00,,---,0.00,VWS V13.01,2013-05-22 00:29:00,
2013-05-21 17:30:00,85.0,78.9,29.41,WSW,247,0.0,0.0,82,0.00,,---,0.00,VWS V13.01,2013-05-22 00:30:00,
2013-05-21 17:34:00,85.0,78.9,29.41,WSW,247,0.0,0.0,82,0.00,,---,0.00,VWS V13.01,2013-05-22 00:34:00,
2013-05-21 17:39:00,85.0,78.9,29.41,WSW,247,0.0,0.0,82,0.00,,---,0.00,VWS V13.01,2013-05-22 00:39:00,
2013-05-21 17:48:00,85.0,78.9,29.41,WSW,247,0.0,0.0,82,0.00,,---,0.00,VWS V13.01,2013-05-22 00:48:00,
2013-05-21 18:05:00,85.0,78.9,29.41,WSW,247,0.0,0.0,82,0.00,,---,0.00,VWS V13.01,2013-05-22 01:05:00,
2013-05-21 18:17:00,85.0,78.9,29.41,WSW,247,0.0,0.0,82,0.00,,---,0.00,VWS V13.01,2013-05-22 01:17:00,
2013-05-21 18:23:00,81.0,74.6,29.40,West,270,0.0,0.0,81,0.00,,---,0.00,VWS V13.01,2013-05-22 01:23:00,
2013-05-21 18:26:00,81.0,74.6,29.40,NW,315,2.0,2.0,81,0.00,,---,0.00,VWS V13.01,2013-05-22 01:26:00,
2013-05-21 18:28:00,81.0,74.6,29.40,NW,315,2.0,2.0,81,0.00,,---,0.00,VWS V13.01,2013-05-22 01:28:00,
2013-05-21 18:33:00,81.0,74.6,29.40,NW,315,2.0,2.0,81,0.00,,---,0.00,VWS V13.01,2013-05-22 01:33:00,
2013-05-21 18:41:00,81.0,74.6,29.42,SW,225,0.0,2.0,81,0.00,,---,0.00,VWS V13.01,2013-05-22 01:41:00,
2013-05-21 18:46:00,80.0,73.7,29.41,East,90,0.0,0.0,81,0.00,,---,0.00,VWS V13.01,2013-05-22 01:46:00,
2013-05-21 18:47:00,80.0,73.7,29.41,East,90,0.0,0.0,81,0.00,,---,0.00,VWS V13.01,2013-05-22 01:47:00,
2013-05-21 18:51:00,80.0,73.7,29.41,East,90,0.0,0.0,81,0.00,,---,0.00,VWS V13.01,2013-05-22 01:51:00,
2013-05-21 18:56:00,80.0,73.7,29.41,East,90,0.0,0.0,81,0.00,,---,0.00,VWS V13.01,2013-05-22 01:56:00,
2013-05-21 19:05:00,80.0,73.7,29.41,East,90,0.0,0.0,81,0.00,,---,0.00,VWS V13.01,2013-05-22 02:05:00,
2013-05-21 19:10:00,80.0,73.7,29.41,East,90,0.0,0.0,81,0.00,,---,0.00,VWS V13.01,2013-05-22 02:10:00,
2013-05-21 19:15:00,80.0,73.7,29.41,East,90,0.0,0.0,81,0.00,,---,0.00,VWS V13.01,2013-05-22 02:15:00,
2013-05-21 19:30:00,73.0,66.5,29.44,NNE,22,0.0,0.0,80,0.00,,---,0.00,VWS V13.01,2013-05-22 02:30:00,
2013-05-21 19:34:00,73.0,66.5,29.44,NNE,22,0.0,0.0,80,0.00,,---,0.00,VWS V13.01,2013-05-22 02:34:00,
2013-05-21 19:35:00,73.0,66.5,29.44,NNE,22,0.0,0.0,80,0.00,,---,0.00,VWS V13.01,2013-05-22 02:35:00,
2013-05-21 19:40:00,73.0,66.5,29.44,NNE,22,0.0,0.0,80,0.00,,---,0.00,VWS V13.01,2013-05-22 02:40:00,
2013-05-21 19:49:00,73.0,66.5,29.44,NNE,22,0.0,0.0,80,0.00,,---,0.00,VWS V13.01,2013-05-22 02:49:00,
2013-05-21 19:55:00,73.0,66.5,29.44,NNE,22,0.0,0.0,80,0.00,,---,0.00,VWS V13.01,2013-05-22 02:55:00,
2013-05-21 20:13:00,73.0,66.5,29.44,NNE,22,0.0,0.0,80,0.00,,---,0.00,VWS V13.01,2013-05-22 03:13:00,
2013-05-21 20:20:00,73.0,66.5,29.44,NNE,22,0.0,0.0,80,0.00,,---,0.00,VWS V13.01,2013-05-22 03:20:00,
2013-05-21 20:25:00,66.0,59.3,29.49,East,90,0.0,0.0,79,0.00,,---,0.00,VWS V13.01,2013-05-22 03:25:00,
2013-05-21 20:30:00,65.0,58.3,29.49,West,270,0.0,0.0,79,0.00,,---,0.00,VWS V13.01,2013-05-22 03:30:00,
2013-05-21 20:35:00,65.0,58.3,29.48,ESE,112,0.0,0.0,79,0.00,,---,0.00,VWS V13.01,2013-05-22 03:35:00,
2013-05-21 20:40:00,65.0,58.3,29.48,ESE,112,0.0,0.0,79,0.00,,---,0.00,VWS V13.01,2013-05-22 03:40:00,
2013-05-21 20:45:00,65.0,58.3,29.48,ESE,112,0.0,0.0,79,0.00,,---,0.00,VWS V13.01,2013-05-22 03:45:00,
2013-05-21 20:50:00,63.0,56.4,29.49,NE,45,0.0,0.0,79,0.00,,---,0.00,VWS V13.01,2013-05-22 03:50:00,
2013-05-21 20:55:00,63.0,56.4,29.49,West,270,0.0,0.0,79,0.00,,---,0.00,VWS V13.01,2013-05-22 03:55:00,
2013-05-21 21:00:00,63.0,56.4,29.49,ESE,112,0.0,0.0,79,0.00,,---,0.00,VWS V13.01,2013-05-22 04:00:00,
2013-05-21 21:01:00,63.0,56.4,29.49,ESE,112,0.0,0.0,79,0.00,,---,0.00,VWS V13.01,2013-05-22 04:01:00,
2013-05-21 21:06:00,62.0,55.4,29.49,East,90,0.0,0.0,79,0.00,,---,0.00,VWS V13.01,2013-05-22 04:06:00,
2013-05-21 21:11:00,62.0,55.4,29.49,East,90,0.0,0.0,79,0.00,,---,0.00,VWS V13.01,2013-05-22 04:11:00,
2013-05-21 21:16:00,62.0,55.4,29.51,East,90,0.0,0.0,79,0.00,,---,0.00,VWS V13.01,2013-05-22 04:16:00,
2013-05-21 21:21:00,61.0,54.5,29.51,East,90,0.0,0.0,79,0.00,,---,0.00,VWS V13.01,2013-05-22 04:21:00,
2013-05-21 21:26:00,61.0,54.5,29.52,ESE,112,0.0,0.0,79,0.00,,---,0.00,VWS V13.01,2013-05-22 04:26:00,
2013-05-21 21:31:00,61.0,54.5,29.52,ESE,112,0.0,0.0,79,0.00,,---,0.00,VWS V13.01,2013-05-22 04:31:00,
2013-05-21 21:36:00,60.0,53.5,29.51,ESE,112,0.0,0.0,79,0.00,,---,0.00,VWS V13.01,2013-05-22 04:36:00,
2013-05-21 21:41:00,60.0,53.5,29.51,ESE,112,0.0,0.0,79,0.00,,---,0.00,VWS V13.01,2013-05-22 04:41:00,
2013-05-21 21:46:00,60.0,53.5,29.52,East,90,0.0,0.0,79,0.00,,---,0.00,VWS V13.01,2013-05-22 04:46:00,
2013-05-21 21:51:00,59.0,52.2,29.52,East,90,0.0,0.0,78,0.00,,---,0.00,VWS V13.01,2013-05-22 04:51:00,
2013-05-21 21:56:00,59.0,52.2,29.54,East,90,0.0,0.0,78,0.00,,---,0.00,VWS V13.01,2013-05-22 04:56:00,
2013-05-21 22:01:00,59.0,52.2,29.54,East,90,0.0,0.0,78,0.00,,---,0.00,VWS V13.01,2013-05-22 05:01:00,
2013-05-21 22:06:00,59.0,52.2,29.54,East,90,0.0,0.0,78,0.00,,---,0.00,VWS V13.01,2013-05-22 05:06:00,
2013-05-21 22:11:00,59.0,52.2,29.54,East,90,0.0,0.0,78,0.00,,---,0.00,VWS V13.01,2013-05-22 05:11:00,
2013-05-21 22:16:00,58.0,51.2,29.53,WNW,292,0.0,0.0,78,0.00,,---,0.00,VWS V13.01,2013-05-22 05:16:00,
2013-05-21 22:21:00,58.0,51.2,29.53,WNW,292,0.0,0.0,78,0.00,,---,0.00,VWS V13.01,2013-05-22 05:21:00,
2013-05-21 22:26:00,58.0,51.2,29.55,WNW,292,0.0,0.0,78,0.00,,---,0.00,VWS V13.01,2013-05-22 05:26:00,
2013-05-21 22:31:00,57.0,50.2,29.55,WNW,292,0.0,0.0,78,0.00,,---,0.00,VWS V13.01,2013-05-22 05:31:00,
2013-05-21 22:36:00,57.0,50.2,29.55,WNW,292,0.0,0.0,78,0.00,,---,0.00,VWS V13.01,2013-05-22 05:36:00,
2013-05-21 22:41:00,56.0,49.2,29.55,WNW,292,0.0,0.0,78,0.00,,---,0.00,VWS V13.01,2013-05-22 05:41:00,
2013-05-21 22:46:00,56.0,49.2,29.56,WNW,292,0.0,0.0,78,0.00,,---,0.00,VWS V13.01,2013-05-22 05:46:00,
2013-05-21 22:51:00,56.0,49.2,29.56,West,270,0.0,0.0,78,0.00,,---,0.00,VWS V13.01,2013-05-22 05:51:00,
2013-05-21 22:56:00,56.0,49.2,29.56,West,270,0.0,0.0,78,0.00,,---,0.00,VWS V13.01,2013-05-22 05:56:00,
2013-05-21 23:01:00,56.0,49.2,29.56,West,270,0.0,0.0,78,0.00,,---,0.00,VWS V13.01,2013-05-22 06:01:00,
2013-05-21 23:06:00,56.0,49.2,29.57,West,270,0.0,0.0,78,0.00,,---,0.00,VWS V13.01,2013-05-22 06:06:00,
2013-05-21 23:11:00,56.0,49.2,29.57,West,270,0.0,0.0,78,0.00,,---,0.00,VWS V13.01,2013-05-22 06:11:00,
2013-05-21 23:16:00,56.0,49.2,29.57,West,270,0.0,0.0,78,0.00,,---,0.00,VWS V13.01,2013-05-22 06:16:00,
2013-05-21 23:21:00,56.0,49.2,29.57,West,270,0.0,0.0,78,0.00,,---,0.00,VWS V13.01,2013-05-22 06:21:00,
2013-05-21 23:26:00,56.0,49.2,29.57,West,270,0.0,0.0,78,0.00,,---,0.00,VWS V13.01,2013-05-22 06:26:00,
2013-05-21 23:31:00,56.0,49.2,29.57,West,270,0.0,0.0,78,0.00,,---,0.00,VWS V13.01,2013-05-22 06:31:00,
2013-05-21 23:36:00,56.0,49.2,29.58,West,270,0.0,0.0,78,0.00,,---,0.00,VWS V13.01,2013-05-22 06:36:00,
2013-05-21 23:41:00,56.0,49.2,29.58,West,270,0.0,0.0,78,0.00,,---,0.00,VWS V13.01,2013-05-22 06:41:00,
2013-05-21 23:46:00,55.0,48.3,29.58,West,270,0.0,0.0,78,0.00,,---,0.00,VWS V13.01,2013-05-22 06:46:00,
2013-05-21 23:51:00,55.0,48.3,29.58,West,270,0.0,0.0,78,0.00,,---,0.00,VWS V13.01,2013-05-22 06:51:00,
2013-05-21 23:56:00,55.0,48.3,29.58,West,270,0.0,0.0,78,0.00,,---,0.00,VWS V13.01,2013-05-22 06:56:00,